• In Czech Republic
  • List of Countries
  • For 7 days
  • Water Temperature
  • Satellite Maps
  • Weather Map
  • Weather Widgets
  • user-avatar
    Login

    Hourly Weather Denver

    Today, 24 February, Saturday

    Time Temperature Precipitation Wind Pressure Humidity
    00:00 -4°C° 0 mm 1 mps 620 mmHg 93%
    01:00 -4°C° 0 mm 1 mps 620 mmHg 92%
    02:00 -6°C° 0 mm 2 mps 620 mmHg 92%
    03:00 -6°C° 0.1 mm 2 mps 620 mmHg 89%
    04:00 -7°C° 0.1 mm 2 mps 620 mmHg 87%
    05:00 -7°C° 0.1 mm 2 mps 620 mmHg 85%
    06:00 -7°C° 0 mm 2 mps 620 mmHg 79%
    07:00 -8°C° 0 mm 3 mps 621 mmHg 74%
    08:00 -8°C° 0 mm 3 mps 621 mmHg 69%
    09:00 -7°C° 0 mm 4 mps 621 mmHg 60%
    10:00 -6°C° 0 mm 5 mps 621 mmHg 51%
    11:00 -4°C° 0 mm 6 mps 621 mmHg 43%
    12:00 -4°C° 0 mm 6 mps 621 mmHg 42%
    13:00 -2°C° 0 mm 5 mps 620 mmHg 42%
    14:00 -1°C° 0 mm 4 mps 620 mmHg 42%
    15:00 -2°C° 0 mm 4 mps 620 mmHg 45%
    16:00 -2°C° 0 mm 3 mps 620 mmHg 49%
    17:00 -2°C° 0 mm 2 mps 619 mmHg 52%
    18:00 -4°C° 0 mm 2 mps 620 mmHg 56%
    19:00 -5°C° 0 mm 2 mps 620 mmHg 60%
    20:00 -6°C° 0 mm 2 mps 620 mmHg 63%
    21:00 -8°C° 0 mm 3 mps 620 mmHg 63%
    22:00 -8°C° 0 mm 3 mps 620 mmHg 63%
    23:00 -8°C° 0 mm 3 mps 620 mmHg 63%

    Tomorrow, 25 February, Sunday

    Time Temperature Precipitation Wind Pressure Humidity
    00:00 -8°C° 0 mm 3 mps 620 mmHg 63%
    01:00 -8°C° 0 mm 3 mps 620 mmHg 63%
    02:00 -8°C° 0 mm 3 mps 620 mmHg 63%
    03:00 -8°C° 0 mm 3 mps 620 mmHg 63%
    04:00 -8°C° 0 mm 3 mps 620 mmHg 64%
    05:00 -8°C° 0 mm 3 mps 620 mmHg 64%
    06:00 -8°C° 0 mm 3 mps 620 mmHg 63%
    07:00 -8°C° 0 mm 4 mps 621 mmHg 61%
    08:00 -7°C° 0 mm 4 mps 622 mmHg 59%
    09:00 -5°C° 0 mm 4 mps 622 mmHg 53%
    10:00 -3°C° 0 mm 4 mps 623 mmHg 47%
    11:00 -2°C° 0 mm 5 mps 623 mmHg 41%
    12:00 -1°C° 0 mm 4 mps 623 mmHg 40%
    13:00 0°C° 0 mm 4 mps 623 mmHg 39%
    14:00 0°C° 0 mm 4 mps 623 mmHg 38%
    15:00 +1°C° 0 mm 3 mps 623 mmHg 41%
    16:00 +1°C° 0 mm 2 mps 623 mmHg 44%
    17:00 +1°C° 0 mm 2 mps 623 mmHg 47%
    18:00 -1°C° 0 mm 2 mps 623 mmHg 49%
    19:00 -3°C° 0 mm 2 mps 624 mmHg 52%
    20:00 -5°C° 0 mm 3 mps 624 mmHg 55%
    21:00 -5°C° 0 mm 3 mps 624 mmHg 55%
    22:00 -5°C° 0 mm 3 mps 624 mmHg 55%
    23:00 -6°C° 0 mm 3 mps 625 mmHg 55%

    Day after tomorrow, 26 February, Monday

    Time Temperature Precipitation Wind Pressure Humidity
    00:00 -6°C° 0 mm 3 mps 624 mmHg 55%
    01:00 -6°C° 0 mm 3 mps 624 mmHg 54%
    02:00 -6°C° 0 mm 3 mps 624 mmHg 53%
    03:00 -6°C° 0 mm 3 mps 623 mmHg 53%
    04:00 -6°C° 0 mm 3 mps 623 mmHg 52%
    05:00 -6°C° 0 mm 3 mps 623 mmHg 51%
    06:00 -5°C° 0 mm 3 mps 623 mmHg 49%
    07:00 -4°C° 0 mm 3 mps 623 mmHg 48%
    08:00 -2°C° 0 mm 3 mps 623 mmHg 46%
    09:00 0°C° 0 mm 3 mps 623 mmHg 41%
    10:00 +3°C° 0 mm 3 mps 623 mmHg 36%
    11:00 +5°C° 0 mm 3 mps 622 mmHg 32%
    12:00 +6°C° 0 mm 4 mps 622 mmHg 30%
    13:00 +7°C° 0 mm 4 mps 621 mmHg 28%
    14:00 +9°C° 0 mm 5 mps 621 mmHg 26%
    15:00 +7°C° 0 mm 4 mps 621 mmHg 33%
    16:00 +7°C° 0 mm 3 mps 620 mmHg 40%
    17:00 +5°C° 0 mm 2 mps 619 mmHg 46%
    18:00 +3°C° 0 mm 2 mps 620 mmHg 49%
    19:00 +2°C° 0 mm 2 mps 620 mmHg 52%
    20:00 -1°C° 0 mm 2 mps 620 mmHg 56%
    21:00 -2°C° 0 mm 2 mps 621 mmHg 56%
    22:00 -2°C° 0 mm 2 mps 621 mmHg 56%
    23:00 -2°C° 0 mm 2 mps 621 mmHg 57%

    27 February, Tuesday

    Time Temperature Precipitation Wind Pressure Humidity
    00:00 -2°C° 0 mm 2 mps 621 mmHg 56%
    01:00 -2°C° 0 mm 2 mps 621 mmHg 54%
    02:00 -3°C° 0 mm 2 mps 621 mmHg 53%
    03:00 -3°C° 0 mm 2 mps 622 mmHg 54%
    04:00 -3°C° 0 mm 2 mps 622 mmHg 54%
    05:00 -3°C° 0 mm 2 mps 622 mmHg 55%
    06:00 -3°C° 0 mm 2 mps 623 mmHg 54%
    07:00 0°C° 0 mm 1 mps 623 mmHg 52%
    08:00 +1°C° 0 mm 1 mps 624 mmHg 51%
    09:00 +2°C° 0 mm 1 mps 623 mmHg 47%
    10:00 +4°C° 0 mm 1 mps 623 mmHg 43%
    11:00 +5°C° 0 mm 2 mps 623 mmHg 40%
    12:00 +6°C° 0 mm 2 mps 622 mmHg 38%
    13:00 +7°C° 0 mm 2 mps 622 mmHg 36%
    14:00 +8°C° 0 mm 3 mps 621 mmHg 34%
    15:00 +7°C° 0 mm 3 mps 621 mmHg 38%
    16:00 +6°C° 0 mm 2 mps 621 mmHg 43%
    17:00 +6°C° 0 mm 2 mps 621 mmHg 47%
    18:00 +4°C° 0 mm 2 mps 621 mmHg 53%
    19:00 +2°C° 0 mm 2 mps 621 mmHg 58%
    20:00 +1°C° 0 mm 1 mps 621 mmHg 63%
    21:00 +1°C° 0 mm 1 mps 620 mmHg 63%
    22:00 +1°C° 0 mm 1 mps 620 mmHg 63%
    23:00 0°C° 0 mm 1 mps 620 mmHg 63%

    28 February, Wednesday

    Time Temperature Precipitation Wind Pressure Humidity
    00:00 0°C° 0 mm 1 mps 620 mmHg 63%
    01:00 0°C° 0 mm 1 mps 619 mmHg 62%
    02:00 0°C° 0 mm 1 mps 619 mmHg 62%
    03:00 0°C° 0 mm 1 mps 618 mmHg 63%
    04:00 -2°C° 0 mm 2 mps 618 mmHg 63%
    05:00 -2°C° 0 mm 2 mps 618 mmHg 63%
    06:00 -2°C° 0 mm 2 mps 618 mmHg 63%
    07:00 -1°C° 0 mm 2 mps 618 mmHg 63%
    08:00 -1°C° 0 mm 2 mps 618 mmHg 63%
    09:00 +1°C° 0.1 mm 2 mps 618 mmHg 61%
    10:00 +1°C° 0.1 mm 3 mps 618 mmHg 60%
    11:00 +2°C° 0.1 mm 3 mps 618 mmHg 58%
    12:00 +3°C° 0.1 mm 3 mps 618 mmHg 56%
    13:00 +3°C° 0.1 mm 3 mps 618 mmHg 54%
    14:00 +3°C° 0.1 mm 3 mps 618 mmHg 53%
    15:00 +3°C° 0.2 mm 3 mps 619 mmHg 53%
    16:00 +1°C° 0.2 mm 4 mps 620 mmHg 53%
    17:00 +1°C° 0.2 mm 4 mps 620 mmHg 53%
    18:00 -1°C° 0 mm 4 mps 621 mmHg 54%
    19:00 -1°C° 0 mm 3 mps 622 mmHg 55%
    20:00 -4°C° 0 mm 3 mps 622 mmHg 57%
    21:00 -4°C° 0 mm 3 mps 623 mmHg 56%
    22:00 -5°C° 0 mm 3 mps 624 mmHg 56%
    23:00 -4°C° 0 mm 2 mps 624 mmHg 56%

    1 March, Thursday

    Time Temperature Precipitation Wind Pressure Humidity
    00:00 -4°C° 0 mm 2 mps 624 mmHg 55%
    01:00 -4°C° 0 mm 2 mps 625 mmHg 55%
    02:00 -5°C° 0 mm 2 mps 625 mmHg 55%
    03:00 -5°C° 0 mm 2 mps 625 mmHg 54%
    04:00 -4°C° 0 mm 2 mps 626 mmHg 53%
    05:00 -4°C° 0 mm 2 mps 626 mmHg 52%
    06:00 -5°C° 0 mm 3 mps 626 mmHg 49%
    07:00 -4°C° 0 mm 3 mps 627 mmHg 46%
    08:00 -2°C° 0 mm 3 mps 627 mmHg 43%
    09:00 +1°C° 0 mm 3 mps 627 mmHg 37%
    10:00 +4°C° 0 mm 2 mps 626 mmHg 32%
    11:00 +6°C° 0 mm 2 mps 626 mmHg 27%
    12:00 +7°C° 0 mm 2 mps 626 mmHg 27%
    13:00 +8°C° 0 mm 2 mps 625 mmHg 26%
    14:00 +9°C° 0 mm 2 mps 625 mmHg 26%
    15:00 +8°C° 0 mm 3 mps 624 mmHg 30%
    16:00 +8°C° 0 mm 3 mps 623 mmHg 35%
    17:00 +7°C° 0 mm 3 mps 623 mmHg 40%
    18:00 +4°C° 0 mm 3 mps 623 mmHg 44%
    19:00 +3°C° 0 mm 4 mps 623 mmHg 47%
    20:00 0°C° 0 mm 4 mps 622 mmHg 51%
    21:00 0°C° 0 mm 4 mps 622 mmHg 52%
    22:00 +1°C° 0 mm 3 mps 622 mmHg 53%
    23:00 +1°C° 0 mm 3 mps 622 mmHg 53%
    Show more